Hourly Data Report for November 06, 2016

CARBERRY CS
MANITOBA

49°54'20.900" N
99°21'26.800" W
383.50 m
5010547
71170
WZE

Download Data

Hourly Data (November 2016)
Hourly Data Report for November 6, 2016
TIME
LST
Temp Definition
°C
Dew Point Definition
°C
Rel Hum Definition
%
Precip. Amount Definition
mm

Wind Dir Definition
10's deg

Wind Spd Definition
km/h
Visibility Definition
km
Stn Press Definition
kPa
Hmdx Definition


Wind Chill Definition


Weather Definition


00:00 7.2 2.9 74 0.0 21 11   96.66     LegendNANA
01:00 5.8 2.8 81 0.0 18 8   96.64     LegendNANA
02:00 5.7 3.5 86 0.0 20 10   96.63     LegendNANA
03:00 4.3 2.5 88 0.0 19 10   96.57     LegendNANA
04:00 4.9 2.8 87 0.0 18 11   96.52     LegendNANA
05:00 4.7 2.9 88 0.0 19 11   96.49     LegendNANA
06:00 4.8 3.3 90 0.0 17 13   96.45     LegendNANA
07:00 4.8 2.9 88 0.0 20 7   96.41     LegendNANA
08:00 5.0 2.9 86 0.0 17 13   96.39     LegendNANA
09:00 7.5 4.3 80 0.0 19 11   96.37     LegendNANA
10:00 8.6 4.6 76 0.0 19 11   96.35     LegendNANA
11:00 10.1 4.5 68 0.0 17 15   96.34     LegendNANA
12:00 13.6 5.1 56 0.0 20 11   96.28     LegendNANA
13:00 15.6 5.2 50 0.0 19 14   96.21     LegendNANA
14:00 17.8 5.9 46 0.0 18 15   96.14     LegendNANA
15:00 17.6 6.9 50 0.0 18 10   96.09     LegendNANA
16:00 16.6 7.3 54 0.0 19 15   96.09     LegendNANA
17:00 14.6 7.3 62 0.0 19 14   96.10     LegendNANA
18:00 15.2 7.6 61 0.0 18 18   96.08     LegendNANA
19:00 14.3 8.1 66 0.0 17 15   96.10     LegendNANA
20:00 13.9 8.9 72 0.0 19 15   96.07     LegendNANA
21:00 12.0 8.8 81 0.0 18 14   96.05     LegendNANA
22:00 10.7 8.7 87 0.0 18 12   96.02     LegendNANA
23:00 11.6 9.8 89 0.0 18 17   95.99     LegendNANA

Notes on Data Quality.

Legend

  • E = Estimated
  • M = Missing
  • NA = Not Available*
  • [empty] = Indicates an unobserved value
Date modified: